Weather reports worldwide

Advertisment
Izmir/A.Menderes, Turkey (17219): temperature & dewpoint: 08.08.2020 10:00:00 - 14.08.2020 10:00:00 (EEST)Izmir/A.Menderes, Turkey (17219): wind speed: 08.08.2020 10:00:00 - 14.08.2020 10:00:00 (EEST)Izmir/A.Menderes, Turkey (17219): wind direction: 08.08.2020 10:00:00 - 14.08.2020 10:00:00 (EEST)Izmir/A.Menderes, Turkey (17219): reduced air pressure: 08.08.2020 10:00:00 - 14.08.2020 10:00:00 (EEST)Izmir/A.Menderes, Turkey (17219): visibility: 08.08.2020 10:00:00 - 14.08.2020 10:00:00 (EEST)
Date & Time tt [°C] td [°C] ff [km/h] ff [kn] dd ppp [hPa] vv [km]
14.08.2020 10:00:00 29,0 13,0 37 20 N - 10
14.08.2020 09:00:00 27,8 13,3 39 21 N 1009,7 10
14.08.2020 08:00:00 27,0 14,0 42 23 N - 10
14.08.2020 07:00:00 26,0 14,0 41 22 N - 10
14.08.2020 06:00:00 25,9 14,3 35 19 N 1008,4 10
14.08.2020 05:00:00 26,0 14,0 28 15 N - 10
14.08.2020 04:00:00 27,0 14,0 31 17 N - 10
14.08.2020 03:00:00 27,2 14,1 35 19 N 1008,7 10
14.08.2020 02:00:00 28,0 14,0 35 19 NNW - 10
14.08.2020 01:00:00 29,0 14,0 34 18 NNW - 10
14.08.2020 00:00:00 28,9 13,6 28 15 NNW 1009,1 10
13.08.2020 23:00:00 29,0 14,0 28 15 N - 10
13.08.2020 22:00:00 30,0 15,0 34 18 N - 10
13.08.2020 21:00:00 30,4 14,0 22 12 N 1009,0 10
13.08.2020 20:00:00 32,0 13,0 22 12 N - 10
13.08.2020 19:00:00 34,0 12,0 31 17 N - 10
13.08.2020 18:00:00 35,1 13,2 37 20 NNW 1007,6 10
13.08.2020 17:00:00 36,0 10,0 28 15 N - 10
13.08.2020 16:00:00 35,0 11,0 34 18 NNW - 10
13.08.2020 15:00:00 36,0 10,7 29 16 N 1008,5 10
13.08.2020 14:00:00 35,0 11,0 34 18 N - 10
13.08.2020 13:00:00 34,0 12,0 31 17 N - 10
13.08.2020 12:00:00 32,7 11,7 28 15 N 1009,8 10
13.08.2020 11:00:00 31,0 12,0 26 14 N - 10
13.08.2020 10:00:00 30,0 12,0 29 16 N - 10
13.08.2020 09:00:00 28,5 11,1 31 17 N 1009,9 10
13.08.2020 08:00:00 28,0 10,0 31 17 N - 10
13.08.2020 07:00:00 26,0 10,0 22 12 N - 10
13.08.2020 06:00:00 26,3 10,4 31 17 N 1009,0 10
13.08.2020 05:00:00 27,0 10,0 26 14 N - 10
13.08.2020 04:00:00 27,0 11,0 31 17 N - 10
13.08.2020 03:00:00 27,0 11,4 29 16 N 1008,7 15
13.08.2020 02:00:00 28,0 11,0 34 18 N - 10
13.08.2020 01:00:00 28,0 12,0 34 18 N - 10
13.08.2020 00:00:00 28,6 11,9 28 15 N 1009,5 10
12.08.2020 23:00:00 29,0 13,0 22 12 N - 10
12.08.2020 22:00:00 30,0 13,0 24 13 N - 10
12.08.2020 21:00:00 30,9 11,3 26 14 N 1008,8 15
12.08.2020 20:00:00 32,0 12,0 31 17 N - 10
12.08.2020 19:00:00 34,0 11,0 35 19 NNW - 10
12.08.2020 18:00:00 34,6 12,2 34 18 NNW 1007,3 10
12.08.2020 17:00:00 36,0 11,0 37 20 NNW - 10
12.08.2020 16:00:00 36,0 11,0 29 16 NNW - 10
12.08.2020 15:00:00 35,7 11,2 29 16 NNW 1008,1 10
12.08.2020 14:00:00 35,0 14,0 28 15 N - 10
12.08.2020 13:00:00 34,0 14,0 28 15 NNW - 10
12.08.2020 12:00:00 32,5 14,1 28 15 NNW 1009,2 10
12.08.2020 11:00:00 31,0 15,0 28 15 NNW - 10
12.08.2020 10:00:00 29,0 14,0 28 15 N - 10
12.08.2020 09:00:00 27,8 14,1 29 16 N 1009,3 10
12.08.2020 08:00:00 27,0 14,0 28 15 N - 10
12.08.2020 07:00:00 25,0 14,0 16 9 N - 10
12.08.2020 06:00:00 24,9 14,0 18 10 N 1008,8 10
12.08.2020 05:00:00 25,0 14,0 15 8 N - 10
12.08.2020 04:00:00 26,0 14,0 18 10 N - 10
12.08.2020 03:00:00 26,6 13,9 22 12 N 1008,8 10
12.08.2020 02:00:00 26,0 14,0 15 8 N - 10
12.08.2020 01:00:00 27,0 14,0 13 7 NNE - 10
12.08.2020 00:00:00 27,9 14,0 21 11 N 1009,6 15
11.08.2020 23:00:00 29,0 14,0 24 13 N - 10
11.08.2020 22:00:00 30,0 14,0 26 14 N - 10
11.08.2020 21:00:00 30,2 12,9 24 13 N 1009,2 10
11.08.2020 20:00:00 32,0 12,0 28 15 N - 10
11.08.2020 19:00:00 34,0 13,0 21 11 N - 10
11.08.2020 18:00:00 34,5 14,4 24 13 NNW 1008,6 10
11.08.2020 17:00:00 35,0 15,0 26 14 N - 10
11.08.2020 16:00:00 34,0 15,0 26 14 N - 10
11.08.2020 15:00:00 34,1 14,5 28 15 NNW 1009,2 10
11.08.2020 14:00:00 33,0 14,0 26 14 N - 10
11.08.2020 13:00:00 32,0 15,0 24 13 NNW - 10
11.08.2020 12:00:00 31,3 15,2 22 12 N 1010,2 10
11.08.2020 11:00:00 30,0 15,0 29 16 NNW - 10
11.08.2020 10:00:00 29,0 15,0 31 17 N - 10
11.08.2020 09:00:00 27,3 15,5 28 15 N 1009,8 10
11.08.2020 08:00:00 26,0 16,0 26 14 N - 10
11.08.2020 07:00:00 25,0 16,0 28 15 N - 10
11.08.2020 06:00:00 23,7 15,7 18 10 N 1009,4 10
11.08.2020 05:00:00 24,0 15,0 18 10 N - 10
11.08.2020 04:00:00 25,0 14,0 15 8 NNE - 10
11.08.2020 03:00:00 25,1 13,1 15 8 N 1009,0 10
11.08.2020 02:00:00 26,0 12,0 15 8 N - 10
11.08.2020 01:00:00 26,0 12,0 13 7 NNE - 10
11.08.2020 00:00:00 27,6 12,0 22 12 N 1009,2 10
10.08.2020 23:00:00 28,0 12,0 26 14 N - 10
10.08.2020 22:00:00 29,0 13,0 29 16 N - 10
10.08.2020 21:00:00 29,9 13,5 28 15 N 1007,8 10
10.08.2020 20:00:00 32,0 15,0 28 15 NNE - 10
10.08.2020 19:00:00 34,0 14,0 29 16 N - 10
10.08.2020 18:00:00 34,0 14,4 22 12 NNE 1006,3 10
10.08.2020 17:00:00 34,0 16,0 24 13 NNW - 10
10.08.2020 16:00:00 34,0 16,0 24 13 NNW - 10
10.08.2020 15:00:00 33,8 16,1 26 14 NNW 1006,8 10
10.08.2020 14:00:00 33,0 16,0 22 12 N - 10
10.08.2020 13:00:00 32,0 17,0 24 13 N - 10
10.08.2020 12:00:00 30,9 16,8 24 13 N 1007,2 10
10.08.2020 11:00:00 30,0 17,0 26 14 N - 10
10.08.2020 10:00:00 29,0 17,0 24 13 N - 10
10.08.2020 09:00:00 27,4 17,4 22 12 N 1006,9 10
10.08.2020 08:00:00 24,0 19,0 9 5 E - 10
10.08.2020 07:00:00 25,0 19,0 21 11 N - 10
10.08.2020 06:00:00 24,2 18,8 21 11 N 1005,8 10
10.08.2020 05:00:00 25,0 19,0 28 15 N - 10
10.08.2020 04:00:00 24,0 19,0 26 14 NNW - 10
10.08.2020 03:00:00 20,5 17,8 5 3 E 1006,5 10
10.08.2020 02:00:00 25,0 17,0 13 7 N - 10
10.08.2020 01:00:00 24,0 18,0 28 15 N - 10
10.08.2020 00:00:00 22,2 18,8 2 1 - 1006,4 10
09.08.2020 23:00:00 23,0 18,0 15 8 WSW - 10
09.08.2020 22:00:00 23,0 18,0 15 8 SSW - 10
09.08.2020 21:00:00 25,1 17,5 28 15 SE 1006,0 10
09.08.2020 20:00:00 32,0 17,0 26 14 NNE - 10
09.08.2020 19:00:00 34,0 17,0 28 15 NNE - 10
09.08.2020 18:00:00 33,9 18,8 26 14 NNW 1001,9 10
09.08.2020 17:00:00 33,0 20,0 22 12 NNW - 10
09.08.2020 16:00:00 33,0 19,0 24 13 NNW - 10
09.08.2020 15:00:00 32,8 18,8 16 9 NNW 1003,0 10
09.08.2020 14:00:00 32,0 19,0 21 11 N - 10
09.08.2020 13:00:00 31,0 19,0 16 9 NNW - 10
09.08.2020 12:00:00 30,0 19,8 8 4 N 1003,8 10
09.08.2020 11:00:00 28,0 21,0 9 5 NNW - 10
09.08.2020 10:00:00 27,0 21,0 4 2 - - 10
09.08.2020 09:00:00 23,7 21,4 8 4 S 1004,6 10
09.08.2020 08:00:00 23,0 21,0 5 3 SSW - 10
09.08.2020 07:00:00 21,0 20,0 2 1 S - 10
09.08.2020 06:00:00 21,3 19,7 5 3 SE 1003,6 15
09.08.2020 05:00:00 22,0 20,0 0 0 N - 10
09.08.2020 04:00:00 24,0 21,0 8 4 N - 10
09.08.2020 03:00:00 23,8 20,0 8 4 WNW 1004,0 10
09.08.2020 02:00:00 24,0 20,0 5 3 NNW - 10
09.08.2020 01:00:00 24,0 20,0 8 4 NNE - 10
09.08.2020 00:00:00 24,9 20,0 9 5 NW 1004,7 10
08.08.2020 23:00:00 25,0 20,0 16 9 N - 10
08.08.2020 22:00:00 25,0 20,0 16 9 N - 10
08.08.2020 21:00:00 26,1 20,4 24 13 N 1005,4 15
08.08.2020 20:00:00 27,0 20,0 28 15 N - 10
08.08.2020 19:00:00 29,0 20,0 26 14 N - 10
08.08.2020 18:00:00 29,9 20,1 29 16 N 1004,7 15
08.08.2020 17:00:00 30,0 20,0 31 17 N - 10
08.08.2020 16:00:00 30,0 19,0 31 17 N - 10
08.08.2020 15:00:00 31,4 19,0 26 14 N 1005,6 15
08.08.2020 14:00:00 31,0 19,0 28 15 N - 10
08.08.2020 13:00:00 30,0 18,0 24 13 N - 10
08.08.2020 12:00:00 29,6 19,0 16 9 N 1007,0 10
08.08.2020 11:00:00 29,0 19,0 11 6 N - 10
08.08.2020 10:00:00 27,0 19,0 15 8 N - 10

tt = temperature
td = dewpoint
ff = wind speed
dd = wind direction
ppp = reduced air pressure
vv = visibility

Next stations